Location: ????????
(55.3155°N, 39.2900°E)
Time: 07:04:35
(UTC+00:00)

Okean 1 - Visible Passes

Search period start: 16 July 2024 00:00
Search period end: 26 July 2024 00:00
Orbit: 503 x 529 km, 82.5° (Epoch: 15 July)

Date Brightness Start Highest point End Pass type
(mag) Time Alt. Az. Time Alt. Az. Time Alt. Az.
16 Jul 4.5 21:59:13 10° N 22:02:43 35° ENE 22:06:13 10° SE visible
16 Jul 4.4 23:35:10 10° NNW 23:38:21 26° W 23:41:14 12° SW visible
17 Jul 4.7 21:44:21 10° N 21:47:44 31° ENE 21:51:07 10° SE visible
17 Jul 4.2 23:20:07 10° NNW 23:23:27 30° W 23:26:08 14° SSW visible
18 Jul 4.9 21:29:28 10° N 21:32:44 27° ENE 21:35:59 10° SE visible
18 Jul 4.0 23:05:04 10° NNW 23:08:33 35° W 23:11:02 16° SSW visible
19 Jul 5.1 21:14:36 10° N 21:17:42 23° ENE 21:20:47 10° ESE visible
19 Jul 3.8 22:50:02 10° NNW 22:53:37 41° W 22:55:56 19° SSW visible
20 Jul 5.3 20:59:45 10° NNE 21:02:39 21° ENE 21:05:33 10° ESE visible
20 Jul 3.6 22:34:59 10° NNW 22:38:39 49° W 22:40:50 21° SSW visible
21 Jul 5.4 20:44:54 10° NNE 20:47:35 18° ENE 20:50:15 10° ESE visible
21 Jul 3.3 22:19:57 10° NNW 22:23:40 58° W 22:25:46 24° SSW visible
22 Jul 5.6 20:30:03 10° NNE 20:32:29 16° ENE 20:34:53 10° E visible
22 Jul 3.2 22:04:54 10° NNW 22:08:40 69° W 22:10:40 26° S visible
23 Jul 5.7 20:15:16 10° NNE 20:17:21 14° ENE 20:19:26 10° E visible
23 Jul 3.1 21:49:50 10° NNW 21:53:38 82° W 21:55:35 27° S visible
23 Jul 5.6 23:28:10 10° WNW 23:28:39 10° W 23:29:09 10° W visible
24 Jul 5.7 20:00:32 10° NNE 20:02:13 12° ENE 20:03:53 10° E visible
24 Jul 3.1 21:34:47 10° N 21:38:36 85° E 21:40:29 28° SSE visible
24 Jul 5.5 23:12:13 10° WNW 23:13:42 12° W 23:15:11 10° WSW visible
25 Jul 5.8 19:45:58 10° NE 19:47:02 11° NE 19:48:06 10° ENE visible
25 Jul 3.2 21:19:43 10° N 21:23:31 72° ENE 21:25:23 28° SSE visible
25 Jul 5.4 22:56:43 10° NW 22:58:43 14° W 23:00:22 11° WSW visible
